GFSGBSN_prec_cthk_021.txt.gz
RH
35 31 31 30 25 25 26 27 32 34 34 33 31 31 28 26 29 28 27 30 27 24 25 21 18 19 17 28 25 19 17 16 15 17 23 23 23 20 17 14 15 13 10 8 8 8 11
34 31 31 27 26 26 29 31 33 34 32 29 31 32 30 29 29 28 30 28 24 25 23 19 17 17 21 31 17 18 16 16 18 20 18 18 17 15 14 17 22 15 14 16 16 16 13
33 32 28 26 26 30 32 34 34 32 32 31 28 31 30 34 32 31 25 22 22 23 20 17 14 15 23 25 15 15 14 14 14 17 17 12 12 15 15 15 14 14 16 17 18 19 20
35 29 28 28 30 34 36 35 33 29 30 30 32 33 39 27 24 22 21 23 24 22 19 16 15 16 26 16 15 12 13 13 13 13 13 11 12 19 23 17 16 19 26 29 23 18 20
32 29 30 30 32 34 34 35 29 32 34 30 25 19 18 22 19 20 23 24 24 21 19 18 17 22 21 15 17 15 14 17 16 18 19 18 21 21 20 22 24 20 29 22 23 17 19
30 32 33 33 35 35 36 35 31 33 28 22 21 21 20 19 21 23 24 24 22 20 19 18 20 23 15 17 14 13 14 15 20 21 21 21 22 25 23 27 27 25 21 18 21 24 17
33 35 35 37 37 36 38 34 29 27 25 24 22 21 20 21 22 23 23 22 21 21 21 24 18 21 13 12 10 14 15 17 18 21 30 19 31 34 24 19 21 17 18 23 22 21 18
36 39 38 38 39 38 37 33 29 27 25 23 22 21 21 22 21 22 21 35 28 21 19 17 16 15 12 14 14 13 14 18 18 25 17 17 27 19 18 18 18 20 22 23 21 21 20
40 42 39 39 39 38 33 31 29 26 24 24 26 24 21 21 21 21 24 24 19 18 18 17 16 16 13 15 15 13 13 14 15 15 15 25 21 16 18 21 20 24 23 26 24 23 22
44 45 42 41 39 36 30 29 28 25 25 27 26 23 21 20 20 21 23 18 17 19 20 14 16 14 14 14 14 12 11 14 14 17 18 20 19 21 22 25 23 28 26 24 23 24 35
49 48 44 40 37 32 28 28 26 26 26 26 25 23 22 22 25 23 20 16 15 20 29 16 16 14 13 17 16 15 14 15 19 19 21 27 24 26 27 26 24 28 26 27 27 28 27
52 50 46 40 33 30 26 26 26 25 24 24 23 21 20 21 20 20 18 16 14 31 28 18 17 20 18 17 16 18 19 18 20 21 23 24 24 26 27 26 25 26 29 29 30 34 38
54 51 47 42 34 30 25 23 23 23 22 22 21 21 20 20 23 19 17 18 22 35 20 19 20 20 23 20 20 21 22 24 28 30 31 28 30 29 28 33 33 33 36 45 51 47 52
56 50 47 42 35 31 26 22 21 20 20 20 19 20 20 18 17 17 16 26 34 25 21 21 22 22 24 24 24 25 27 27 25 26 30 33 42 33 31 33 34 36 36 47 46 48 45
58 51 46 42 38 33 28 24 21 18 17 19 19 19 19 18 16 17 23 34 27 22 21 20 21 22 23 22 26 28 29 28 27 29 37 34 37 32 32 33 33 39 42 34 42 48 43
60 52 46 41 39 37 31 26 23 18 17 18 21 21 21 17 15 17 31 34 24 20 19 20 26 26 29 28 29 31 33 33 34 32 31 31 39 32 31 28 36 32 32 45 45 53 40
61 55 48 43 40 39 35 29 25 20 19 18 22 24 18 15 15 23 31 25 20 20 21 27 28 28 31 31 33 36 36 35 33 32 31 28 29 34 29 37 35 44 48 43 39 43 48
61 55 50 43 40 40 38 33 30 25 21 20 24 32 16 16 22 28 30 23 23 23 27 29 32 31 34 34 36 37 37 37 35 31 31 30 31 32 29 32 33 36 42 42 46 43 50
61 55 48 45 40 41 41 37 34 31 26 28 32 35 18 18 34 30 28 28 28 30 31 32 35 35 36 36 38 36 38 36 33 31 37 29 34 34 33 40 43 42 45 45 45 47 45
62 56 49 44 42 41 42 40 37 36 34 31 35 36 26 23 32 27 28 28 32 33 33 36 36 34 35 36 36 37 36 34 31 31 28 30 32 29 33 32 34 39 41 43 48 55 56
61 58 51 45 42 40 42 43 40 39 40 34 38 38 31 32 31 31 31 32 34 34 36 36 36 36 36 38 36 37 35 31 29 28 30 31 35 31 32 30 34 39 43 45 47 51 61
60 60 54 47 42 40 41 45 45 42 39 36 37 37 34 36 34 35 36 35 34 37 37 36 37 36 34 35 29 33 30 29 29 31 34 31 36 37 35 33 36 42 44 45 47 53 57
60 61 56 49 42 40 39 41 47 45 40 41 33 33 36 35 35 38 36 37 38 39 39 36 36 34 35 34 32 31 31 31 30 34 35 34 36 40 44 38 44 59 48 47 51 57 59
62 61 58 52 46 40 38 38 39 43 41 39 38 38 38 39 40 40 37 40 42 41 38 38 38 38 37 31 28 27 28 29 30 32 33 40 42 52 57 56 65 54 50 51 52 54 56
64 62 58 53 48 43 40 37 36 37 37 36 37 40 41 47 43 43 42 43 43 40 40 39 38 34 32 31 32 34 32 32 33 31 33 41 51 58 63 58 49 53 53 55 55 54 56
64 62 57 52 48 43 39 38 36 35 36 37 35 36 41 43 49 45 46 46 46 45 42 40 35 32 32 35 34 41 36 28 32 36 41 46 53 58 67 75 71 57 63 60 60 65 68
65 64 59 55 50 46 41 35 37 37 37 35 35 35 38 44 46 47 48 46 45 41 42 38 37 35 34 39 40 45 35 30 33 45 53 56 60 66 70 74 62 58 64 63 72 79 77
62 62 60 54 49 46 42 40 35 35 37 38 36 33 33 35 37 43 42 41 37 37 40 38 37 38 39 42 44 42 47 39 38 36 46 52 65 70 71 76 79 64 66 79 77 76 84
57 57 56 54 50 47 44 42 40 36 36 38 40 37 34 36 37 34 33 32 32 35 38 36 37 34 35 41 43 46 47 48 48 47 41 47 53 63 68 68 70 73 78 80 81 87 85

GFSGBSN_prec_cthk_024.txt.gz
RH
32 28 31 38 30 29 26 23 23 25 31 31 31 31 30 29 26 22 21 25 28 28 28 24 22 22 27 36 32 17 16 17 20 23 27 34 34 29 26 25 19 19 16 10 7 8 11
30 38 38 34 30 29 24 24 26 29 32 33 32 30 29 28 24 24 24 28 30 30 23 23 21 19 28 41 25 18 15 19 27 25 26 31 34 29 22 21 26 14 12 10 9 9 9
37 38 35 32 30 25 25 27 28 31 32 32 30 30 30 28 28 28 29 30 29 25 28 20 19 20 35 36 21 19 17 16 20 25 27 21 22 25 25 22 20 15 17 15 15 15 15
39 36 37 32 27 25 28 32 32 32 30 31 29 31 31 30 31 35 31 29 25 28 24 18 17 17 33 23 17 14 15 15 15 19 18 14 15 23 29 19 14 17 24 30 25 21 19
43 38 34 30 26 29 32 34 33 30 28 28 27 35 38 34 32 28 26 25 26 23 19 16 15 23 34 12 12 14 13 18 14 13 12 11 15 19 16 17 23 22 33 34 32 23 21
40 35 34 28 28 31 32 32 33 28 35 34 33 28 35 24 22 24 25 26 23 20 19 17 22 32 19 18 15 13 13 15 18 19 18 18 21 24 22 33 40 35 24 27 24 22 16
40 37 31 29 32 34 33 34 32 36 35 28 29 22 22 23 25 26 25 23 22 22 24 30 22 26 18 14 13 16 15 17 20 23 28 19 31 40 34 26 27 28 24 24 31 22 20
40 36 32 32 36 35 35 36 31 31 31 25 25 24 22 25 25 24 28 40 37 27 25 23 20 19 15 17 16 15 15 19 19 28 28 20 31 35 31 17 19 26 23 28 27 22 18
41 35 35 36 39 37 37 35 30 29 28 26 24 23 25 25 25 25 38 41 29 20 21 18 19 15 14 17 17 14 14 18 22 29 20 31 29 15 14 20 19 27 23 29 26 23 20
40 37 38 40 40 38 36 33 31 30 28 28 27 26 25 24 25 27 35 22 20 22 21 14 15 13 13 15 14 13 13 17 18 23 22 24 22 18 21 23 21 26 27 27 21 23 31
41 40 41 41 40 38 34 32 31 28 29 30 30 27 26 26 33 28 28 18 21 28 36 17 16 16 14 19 17 14 10 12 21 20 21 29 25 26 28 27 22 26 25 22 23 26 27
44 44 45 43 40 38 32 30 29 28 28 31 29 26 26 28 27 30 22 17 17 46 41 17 16 19 17 16 17 17 15 17 18 19 24 25 22 23 25 23 23 21 26 27 29 29 41
46 48 47 44 38 35 30 28 27 28 28 29 28 27 26 27 31 22 18 17 26 45 20 19 19 20 21 20 20 21 22 23 31 31 30 27 28 26 23 30 33 33 36 50 68 60 57
48 50 49 44 36 33 27 25 25 27 27 27 27 26 23 23 26 20 18 28 40 29 22 19 20 22 24 22 21 23 26 25 24 29 35 41 48 32 29 30 33 34 34 52 53 63 59
52 53 52 44 36 33 27 23 22 24 26 25 24 23 23 20 19 19 26 38 34 23 24 21 22 27 25 23 25 27 33 29 26 28 37 35 40 28 29 29 29 37 46 31 37 49 46
55 54 54 44 38 35 29 24 22 21 23 23 22 21 24 19 18 19 33 39 38 25 20 22 24 26 29 26 28 35 33 30 30 30 30 29 40 28 25 31 40 33 30 43 58 59 47
59 55 53 44 41 38 32 27 24 20 20 21 24 25 27 19 17 24 34 39 29 21 21 25 30 27 39 33 36 38 38 34 33 28 29 27 31 33 31 34 29 36 43 41 40 48 54
62 56 52 45 44 42 35 30 27 21 20 20 22 32 30 17 22 24 34 33 26 19 21 26 30 34 38 33 39 39 38 38 31 30 30 24 28 34 28 27 28 30 36 39 53 48 56
63 57 52 47 46 44 39 33 30 22 20 21 30 50 30 17 31 36 37 31 26 22 23 28 32 35 37 39 41 39 38 35 32 30 36 25 32 38 37 40 38 33 37 39 45 51 52
65 60 53 47 47 46 43 38 33 25 24 29 49 46 27 22 45 31 32 28 28 28 31 32 36 36 36 40 37 37 38 36 30 28 22 28 29 27 32 30 29 30 31 36 43 60 56
64 60 55 49 46 48 47 42 37 32 32 41 52 40 24 24 34 34 29 30 31 31 32 33 37 36 38 39 38 38 37 32 29 23 26 28 31 28 26 25 28 31 33 37 42 46 54
64 60 54 51 46 47 48 47 42 40 39 38 51 49 32 39 24 32 36 33 33 34 35 35 38 40 41 39 36 39 34 30 31 28 32 29 35 32 28 28 30 31 34 38 42 46 50
65 62 56 50 47 45 47 48 46 44 45 46 44 39 37 34 35 39 37 35 37 38 38 41 42 43 43 39 37 35 32 31 30 33 33 34 35 35 40 36 37 55 47 42 47 52 56
66 64 59 53 47 44 44 47 48 45 45 46 40 40 42 39 36 36 37 39 40 40 39 42 43 42 41 37 32 29 26 28 28 30 31 37 35 44 49 48 54 42 39 43 49 52 55
67 64 62 56 49 44 42 41 44 46 43 39 38 41 40 42 37 40 38 41 44 42 46 46 44 40 36 36 35 30 33 29 30 28 30 36 41 50 55 50 39 40 46 47 51 53 58
68 65 64 61 55 46 41 39 38 39 40 38 36 39 41 41 45 42 43 45 46 49 50 50 45 40 37 39 36 37 40 29 36 34 34 37 45 49 55 62 55 45 51 52 52 61 67
68 68 66 64 59 51 45 40 38 37 39 39 37 37 43 48 46 48 52 51 52 52 53 47 43 39 38 40 40 43 35 25 33 40 47 47 51 56 57 58 52 46 51 54 62 75 77
68 69 67 65 60 51 45 40 39 40 38 38 37 37 40 43 46 51 53 57 53 53 59 49 44 42 41 44 42 40 43 40 36 33 43 46 54 57 56 63 64 55 59 72 72 77 84
70 67 67 64 59 54 49 45 42 38 39 40 39 36 35 39 42 45 48 51 49 47 50 44 39 37 36 39 40 41 43 47 46 41 33 46 44 51 52 55 59 69 71 74 80 84 87

GFSGBSN_prec_cthk_030.txt.gz
RH
22 23 24 24 22 24 24 25 29 31 27 25 21 21 24 27 27 23 23 21 18 18 27 27 27 28 31 31 25 19 20 21 24 25 32 34 36 35 30 30 27 25 25 24 23 23 21
24 23 23 22 20 22 25 30 30 31 26 23 22 24 28 29 29 26 26 22 19 23 30 31 28 32 36 37 25 21 26 28 29 30 33 33 34 33 30 29 25 21 21 18 20 21 12
23 24 21 21 20 25 30 35 36 28 24 22 24 27 29 30 29 27 25 21 21 30 33 31 28 38 37 31 25 22 25 29 32 33 33 29 27 30 27 25 22 18 10 7 11 14 10
24 23 20 23 23 25 31 36 31 26 22 25 27 30 31 28 26 25 25 23 26 32 34 31 34 36 35 30 23 21 24 25 27 31 28 26 26 28 22 19 16 16 18 27 29 24 15
24 23 21 22 23 27 34 35 29 24 27 30 31 28 28 29 25 24 24 27 32 35 32 26 32 33 29 26 18 19 19 22 23 29 25 26 27 26 23 25 32 30 27 29 30 28 25
27 22 22 26 27 32 35 33 27 26 31 30 26 27 26 28 27 32 33 35 37 30 24 22 29 30 25 20 15 17 18 18 19 23 14 25 25 28 32 35 37 35 33 29 32 28 28
25 23 26 26 29 34 34 30 27 29 30 28 25 27 28 29 32 35 39 40 31 26 21 20 28 30 24 20 17 12 13 13 14 12 28 35 39 36 32 38 36 35 32 32 33 28 28
21 25 26 29 33 33 32 29 28 30 31 32 31 31 33 33 38 44 36 33 32 30 26 28 28 23 17 18 15 12 12 15 17 33 39 37 35 35 34 34 38 39 38 38 32 30 28
22 24 26 31 35 35 31 29 30 31 33 34 31 32 35 41 41 32 39 35 33 32 34 27 24 20 20 21 19 17 19 24 28 32 33 32 33 34 35 36 34 38 39 37 35 32 30
25 25 30 33 39 36 30 31 32 32 32 35 33 29 38 40 30 36 33 36 34 32 32 26 23 19 23 23 19 18 21 27 26 27 26 28 30 30 27 23 24 29 28 34 32 27 25
27 28 33 37 39 34 32 33 33 33 31 37 31 26 29 28 37 32 37 37 33 33 35 19 19 16 20 20 15 14 20 25 25 25 25 26 29 27 29 27 25 24 23 24 25 26 25
32 32 39 41 38 33 34 35 34 33 32 34 29 28 29 33 37 39 37 32 31 44 33 22 20 15 18 22 18 11 16 24 27 26 27 29 31 27 24 25 24 24 24 28 32 35 41
31 36 44 43 37 34 37 37 36 34 33 31 29 30 30 33 40 34 33 30 40 56 22 21 18 17 17 19 18 14 18 24 29 28 27 28 31 24 25 27 28 28 34 50 55 63 65
34 42 46 44 37 36 38 38 36 33 34 31 29 30 30 34 36 31 30 36 53 34 26 19 22 23 23 21 23 24 22 27 27 32 33 38 42 31 24 31 31 31 36 48 47 61 58
40 52 49 48 38 38 39 38 36 32 34 31 30 31 29 30 32 30 32 55 51 34 25 21 24 27 25 24 24 27 29 29 33 38 36 40 42 33 24 26 30 31 37 30 43 50 52
51 58 51 51 39 40 39 37 34 32 33 32 30 29 28 26 26 27 36 57 43 30 28 24 26 27 28 24 26 29 33 36 30 34 37 37 40 29 29 30 29 28 28 38 43 46 50
60 63 53 51 42 43 40 36 32 32 31 32 31 29 27 26 25 24 43 49 41 31 28 25 28 30 31 32 26 34 37 35 28 30 30 35 37 31 31 31 27 29 31 32 37 46 52
63 57 56 48 48 46 41 33 30 31 31 31 31 30 28 26 25 28 32 44 34 29 26 27 29 33 34 36 39 43 42 38 32 31 29 33 36 38 33 28 28 26 29 32 43 39 54
61 63 55 51 52 48 39 31 29 28 29 31 29 37 33 26 26 30 23 36 32 30 26 25 30 32 38 40 47 44 44 43 33 33 32 30 33 42 35 33 30 25 29 33 39 44 44
69 61 55 56 54 47 37 31 28 26 29 30 31 43 37 28 26 24 34 34 34 25 25 23 28 33 37 40 40 43 43 40 31 31 30 31 30 30 34 27 23 22 25 30 34 48 45
64 60 60 58 55 47 39 33 29 25 28 31 35 39 35 27 24 28 34 36 34 29 25 24 26 33 37 40 42 45 42 37 33 26 27 32 32 29 28 26 24 23 25 27 30 34 42
67 66 63 62 58 48 43 38 30 25 27 35 43 40 34 30 27 28 36 33 30 29 28 30 30 33 37 40 38 42 38 35 32 26 28 30 35 29 25 27 27 25 27 30 33 31 36
72 70 66 67 57 50 45 39 30 26 31 49 51 49 30 35 33 35 34 30 31 34 31 31 33 39 41 44 42 42 40 38 35 32 33 33 35 34 30 34 33 33 30 31 31 33 34
77 70 69 63 56 53 48 41 33 30 40 65 61 51 37 35 36 35 34 36 37 36 36 36 36 40 44 47 44 41 39 39 37 35 33 37 40 40 35 34 29 29 28 29 36 39 39
77 71 69 61 66 55 51 44 36 40 55 57 55 50 42 41 37 37 38 42 41 43 41 40 39 41 46 48 49 44 47 39 40 37 36 35 38 42 37 44 30 27 30 31 34 44 46
77 72 70 61 65 66 54 51 42 42 50 51 50 45 40 39 42 40 35 41 44 43 45 43 42 44 45 52 50 48 47 31 39 37 38 39 38 36 48 36 36 31 31 33 35 45 47
78 74 70 61 59 67 67 54 51 48 46 44 40 40 38 38 43 44 42 44 43 42 46 45 44 47 47 51 57 49 47 39 44 43 42 46 47 48 50 49 40 31 34 36 47 42 47
77 75 71 65 56 58 62 66 64 54 49 44 40 39 39 39 44 43 42 42 41 40 44 44 47 47 51 51 52 52 48 43 40 38 40 39 45 48 50 52 47 30 36 38 35 43 51
75 75 72 67 60 54 52 56 57 55 48 42 39 38 35 36 45 47 47 45 44 44 44 47 43 45 46 50 51 51 48 47 42 42 35 36 32 39 39 39 31 33 35 34 39 49 55

GFSGBSN_prec_cthk_033.txt.gz
RH
24 23 21 20 19 21 22 20 19 19 24 30 30 25 21 19 22 26 25 21 20 16 17 22 25 25 28 31 27 24 23 24 25 28 27 36 38 38 36 33 34 27 28 26 26 26 27
26 22 22 20 21 22 22 19 18 22 28 31 28 24 20 22 27 29 27 23 21 17 18 27 27 28 31 32 27 25 28 29 31 30 34 37 37 36 35 31 27 24 24 24 22 23 22
27 25 22 22 23 22 20 19 19 26 33 31 25 21 23 25 29 29 28 26 23 19 25 30 30 33 34 31 27 27 32 30 27 35 37 38 37 34 31 29 25 22 20 20 17 16 11
28 25 23 22 22 21 20 21 21 29 31 26 21 24 26 28 29 30 28 26 22 24 31 34 36 39 36 30 26 29 29 31 32 38 37 36 39 33 28 27 26 24 17 24 18 15 13
31 26 23 22 22 21 21 21 22 28 30 22 25 28 29 28 28 26 24 25 25 28 33 35 39 38 33 30 25 26 28 28 32 34 34 33 35 35 30 26 24 22 28 27 28 27 23
33 29 24 23 23 21 22 23 25 31 27 23 30 29 27 28 27 25 27 27 30 33 36 36 42 33 29 30 22 24 25 26 30 31 27 27 27 29 26 22 24 23 25 27 31 29 26
33 30 26 24 22 22 24 24 31 32 24 27 29 26 27 28 28 29 32 35 36 37 30 28 31 32 27 22 20 20 20 21 29 30 22 27 29 28 24 29 33 33 26 32 31 30 29
35 27 28 27 22 25 24 27 31 28 24 29 28 25 26 29 33 35 38 43 45 33 24 26 29 28 23 20 18 16 19 21 23 26 27 31 30 30 39 41 38 36 36 30 32 36 34
38 31 29 25 23 24 24 28 31 27 25 30 30 29 30 33 36 40 53 46 36 30 29 29 29 23 23 21 17 15 15 15 19 33 31 33 34 37 42 40 43 42 40 37 36 36 34
47 32 27 24 25 26 25 30 32 27 28 32 29 32 33 37 42 56 42 35 32 33 34 31 26 21 20 20 18 15 16 21 30 31 32 31 30 33 36 32 33 41 39 36 37 38 40
53 34 27 26 26 27 27 32 32 27 30 34 32 31 38 38 51 36 36 36 35 32 41 24 23 22 25 24 20 20 26 29 29 30 30 32 34 33 32 29 25 26 28 29 32 34 34
65 41 28 28 29 28 30 35 32 28 32 35 33 31 34 45 42 34 36 31 33 44 32 24 24 23 24 24 20 20 28 30 30 30 31 33 30 29 28 28 27 26 28 32 35 35 41
72 50 31 32 32 31 33 35 31 30 34 34 35 32 32 36 39 35 33 32 41 58 25 23 20 17 21 23 18 18 28 31 32 34 33 33 31 27 26 28 28 27 33 46 51 55 53
71 47 34 36 36 35 38 34 33 34 37 32 33 31 33 37 38 33 34 37 49 41 23 20 20 17 21 21 21 19 23 30 30 30 35 37 37 27 26 29 30 30 33 46 47 58 54
67 48 39 42 40 39 38 34 36 37 37 34 32 33 35 36 37 33 35 48 49 37 24 21 23 24 24 25 24 21 25 28 28 30 32 37 37 33 25 28 29 32 35 30 44 48 50
67 44 41 44 45 43 37 37 39 40 37 35 33 34 32 35 37 34 43 51 46 31 25 25 26 27 28 28 28 30 30 28 28 33 37 38 42 33 29 28 29 28 29 37 41 44 45
62 42 41 45 48 45 37 40 41 42 38 36 34 35 32 32 32 36 49 52 46 31 29 28 29 30 32 31 29 32 34 35 32 32 36 39 39 37 32 32 29 30 29 31 36 44 50
59 45 43 46 50 46 38 41 42 41 39 36 34 36 34 31 30 39 45 50 40 35 32 29 31 30 32 34 35 34 35 35 33 30 33 40 40 44 33 30 27 27 28 29 37 33 50
57 48 46 51 51 47 40 42 42 38 38 36 36 39 36 29 30 38 39 43 38 34 32 31 32 30 33 40 44 43 42 42 38 32 32 34 39 45 38 33 28 27 28 33 33 37 39
60 50 54 60 54 47 42 42 41 37 37 37 38 44 39 32 25 27 31 35 37 34 31 28 31 32 38 44 44 48 47 44 37 33 32 34 37 33 34 27 26 23 23 29 31 44 41
61 54 58 62 55 46 44 42 39 36 36 38 39 41 32 32 29 27 25 32 32 31 27 27 29 30 35 44 46 47 44 42 35 32 33 32 33 33 30 28 23 21 22 28 30 30 36
61 59 57 58 56 48 46 41 35 34 35 38 38 42 31 26 21 28 30 34 33 29 28 25 24 31 35 38 38 45 43 39 32 32 32 32 39 32 30 32 30 24 21 26 27 27 31
65 66 65 62 54 52 46 39 33 31 34 37 41 43 33 32 24 29 30 34 31 29 31 28 30 32 36 38 41 40 40 36 33 33 33 31 36 34 29 37 29 27 21 26 26 27 30
70 68 66 59 58 53 44 39 31 29 31 40 45 42 34 37 25 25 27 31 30 32 31 30 30 32 38 40 44 44 43 42 41 39 34 36 40 39 35 34 30 20 24 25 27 32 32
71 70 63 63 60 53 46 40 31 29 35 49 54 53 35 39 32 34 30 32 35 39 39 39 36 36 39 41 46 46 51 44 44 45 43 36 38 45 41 41 27 22 27 29 29 31 34
74 67 65 70 67 55 48 40 33 30 48 58 51 50 42 34 42 40 41 40 42 43 43 42 42 40 43 47 47 47 47 36 42 41 42 40 37 37 48 35 32 21 26 26 30 39 33
71 68 67 73 67 55 50 42 35 42 60 77 64 52 42 44 44 42 43 42 42 44 46 46 45 44 42 49 56 52 51 43 48 44 47 49 47 45 51 43 34 23 28 31 42 32 33
73 69 69 71 76 57 51 43 39 48 62 62 58 47 41 40 47 41 38 36 38 41 46 44 47 47 49 51 51 52 51 49 48 43 43 43 47 49 50 51 41 24 32 36 32 31 33
73 72 70 68 77 74 57 49 44 45 54 53 47 45 42 40 46 49 47 46 44 44 43 44 43 44 45 47 48 50 52 52 49 46 41 41 33 38 37 36 27 29 30 33 36 36 39

GFSGBSN_prec_cthk_036.txt.gz
RH
32 28 26 22 20 19 19 19 20 21 19 18 19 23 28 27 22 19 22 26 24 19 18 18 19 25 26 30 30 28 26 25 24 22 27 33 36 37 36 38 34 34 30 33 42 43 41
36 29 26 23 22 21 20 21 21 21 19 18 22 28 28 24 20 22 27 28 26 22 18 17 24 26 28 34 29 28 28 26 26 26 34 37 37 38 38 37 33 32 30 29 28 29 27
38 32 28 24 22 22 22 22 22 20 19 20 26 29 25 19 22 25 28 28 26 22 19 20 28 29 31 33 28 30 30 29 28 30 38 40 39 39 35 31 28 27 27 28 23 23 23
37 33 29 27 24 22 22 22 21 20 20 22 25 26 20 22 26 27 29 29 27 24 22 25 30 35 35 33 27 30 32 31 32 36 39 40 39 37 34 30 28 23 19 23 20 17 14
37 31 28 27 24 23 23 22 21 20 20 22 26 22 23 27 29 29 29 28 27 26 26 32 37 41 40 34 30 31 32 34 33 39 39 41 40 33 30 30 31 26 27 23 20 18 16
41 32 28 26 25 24 24 22 22 21 22 24 27 22 28 28 27 28 28 27 28 28 30 35 43 45 35 36 27 30 32 35 37 39 38 41 40 36 32 30 30 25 31 28 27 25 26
44 40 28 29 26 24 23 23 22 23 24 27 24 24 28 27 27 27 27 30 31 31 33 34 43 38 32 32 27 30 33 36 36 37 37 37 39 39 35 29 26 22 29 28 28 27 30
52 45 34 28 26 24 23 24 23 24 26 28 22 26 26 24 28 28 30 34 35 39 37 34 37 33 30 27 26 27 32 34 35 36 33 32 33 32 31 31 34 29 30 33 33 32 33
63 51 43 30 26 24 25 24 24 25 27 26 23 25 25 25 31 35 39 44 45 40 34 32 32 32 27 24 22 23 28 28 32 31 32 32 33 32 34 40 40 40 37 36 35 36 37
68 63 53 34 26 26 28 25 24 27 26 26 24 26 26 30 36 45 49 50 43 35 32 32 32 28 25 23 20 19 22 26 28 34 33 34 33 34 40 42 36 42 38 35 35 34 40
75 69 61 41 27 28 29 27 26 28 27 26 25 27 30 33 42 51 52 42 35 36 39 28 30 23 24 23 20 20 22 22 23 30 28 30 33 34 37 35 29 30 32 33 33 35 36
80 74 69 52 31 31 29 28 29 28 28 27 28 31 33 37 47 50 41 34 35 43 41 27 25 21 23 24 19 18 21 24 27 32 31 33 33 33 34 31 28 27 29 34 39 40 46
84 92 82 58 37 34 33 31 32 30 30 28 31 33 35 43 50 40 34 37 39 48 27 25 23 25 28 27 21 22 30 32 32 37 37 35 34 31 29 29 28 29 33 44 48 51 49
99 91 88 63 42 38 36 35 33 33 32 31 34 33 38 50 46 38 36 34 38 43 29 25 23 25 27 26 24 26 32 35 33 32 39 40 38 30 28 28 31 32 33 49 47 57 52
92 96 83 59 48 42 40 40 38 36 34 33 37 38 40 45 41 35 35 41 45 46 28 24 21 21 26 25 22 24 29 32 32 31 34 38 36 31 27 31 32 34 37 35 47 49 50
92 96 92 63 51 42 42 43 42 41 37 36 39 43 41 39 41 37 38 42 47 39 28 22 22 22 25 26 25 23 26 26 28 29 31 35 39 34 33 29 29 32 34 39 42 40 40
99 98 94 62 48 44 44 46 45 42 41 41 42 46 40 38 40 36 42 48 48 39 28 24 26 27 26 27 29 28 29 29 28 31 34 38 38 42 34 30 33 33 32 33 36 42 46
99 99 84 57 52 45 45 47 43 45 46 44 47 43 37 37 38 42 50 48 46 35 30 30 28 30 32 34 36 33 34 34 36 33 34 39 43 47 39 33 31 29 30 29 34 30 47
98 96 67 63 50 46 48 47 44 48 47 45 44 43 39 35 40 44 49 47 46 36 34 33 32 32 35 41 43 40 36 37 39 34 33 35 41 50 41 34 31 29 31 31 31 36 38
98 75 70 61 47 50 50 47 45 50 48 45 42 47 45 37 33 41 45 45 48 38 33 33 34 35 36 43 46 50 48 45 42 39 32 33 39 38 41 31 30 25 27 28 27 41 36
85 71 67 56 48 51 50 47 46 50 48 47 42 42 37 41 38 38 43 44 48 38 33 31 33 35 35 42 48 50 49 46 41 40 36 33 36 37 35 33 26 22 21 26 27 27 30
77 74 65 50 50 52 51 47 46 48 48 48 43 42 35 34 33 35 41 43 40 36 33 30 29 34 34 39 44 50 45 42 37 39 37 36 40 34 34 36 33 28 24 24 25 25 29
79 69 60 52 52 55 54 45 46 46 43 47 43 41 33 37 35 33 37 37 35 34 31 30 28 28 30 36 41 40 40 39 35 35 36 34 38 37 37 37 31 28 23 25 23 23 25
75 68 57 54 57 63 55 44 46 45 41 42 42 46 38 38 32 31 28 31 34 30 29 31 29 30 33 38 40 43 43 42 41 41 35 36 36 35 35 33 28 18 22 24 24 23 25
72 65 63 62 59 57 54 45 45 41 40 42 47 55 43 42 30 28 29 32 35 34 34 33 33 31 34 36 45 47 51 46 46 47 43 38 37 42 37 38 25 19 24 28 28 24 28
70 64 64 63 63 63 50 45 42 38 38 40 47 47 44 42 34 25 31 29 34 37 38 40 40 36 36 40 42 49 50 43 44 46 47 44 41 41 48 35 31 20 22 24 25 34 26
66 67 69 74 69 57 49 43 41 34 37 46 58 60 52 41 38 35 34 31 30 35 42 42 42 41 40 44 50 49 45 42 47 46 53 55 52 46 52 44 33 22 25 27 35 29 28
66 70 75 74 65 57 49 47 37 32 43 48 70 69 60 48 44 43 40 41 38 39 41 42 45 46 46 47 50 51 49 47 45 42 49 50 54 54 52 52 41 25 30 33 30 28 29
71 76 79 74 67 62 55 42 34 35 42 47 65 62 57 52 54 50 46 44 42 38 37 44 45 44 42 47 48 49 51 49 46 45 43 45 40 42 40 37 28 28 29 30 32 34 35